Regional Weather Roundup
Issued by NWS Upton, NY

Current Version | Previous Version | Text Only | Print | Product List | Glossary On
Versions: 1 2 3 4 5 6 7 8 9 10 11 12 13 14 15 16 17 18 19 20 21 22 23 24 25 26 27
000
ASUS41 KOKX 191205
RWROKX

REGIONAL WEATHER ROUNDUP
NATIONAL WEATHER SERVICE NEW YORK NY
800 AM EDT SAT APR 19 2014

NOTE: "FAIR" INDICATES FEW OR NO CLOUDS BELOW 12,000 FEET WITH NO
SIGNIFICANT WEATHER AND/OR OBSTRUCTIONS TO VISIBILITY.

NYZ071-072-176-178-NJZ106-104-191300-
NEW YORK CITY METRO AREA


CITY           SKY/WX    TMP DP  RH WIND       PRES   REMARKS
CENTRAL PARK   MOSUNNY   46  34  62 CALM      30.28R
LAGUARDIA APRT PTSUNNY   46  35  65 NW7       30.26R
KENNEDY INTL   PTSUNNY   46  37  71 W5        30.27R
NEWARK/LIBERTY PTSUNNY   45  37  73 VRB3      30.27R
TETERBORO      MOSUNNY   45  35  68 CALM      30.26R
$$

NYZ177-179-078>081-191300-
LONG ISLAND NEW YORK

CITY           SKY/WX    TMP DP  RH WIND       PRES   REMARKS
FARMINGDALE    SUNNY     44  38  79 W6        30.26R
ISLIP          MOSUNNY   44  39  82 CALM      30.24R
SHIRLEY        SUNNY     42  39  89 W5        30.26R
WESTHAMPTON    SUNNY     43  39  86 W3        30.27R
MONTAUK POINT    N/A     44  37  76 W8        30.26R
$$

NYZ052-065-067-191300-
HUDSON VALLEY

CITY           SKY/WX    TMP DP  RH WIND       PRES   REMARKS
WHITE PLAINS   MOSUNNY   43  35  73 NW3       30.23S
NEWBURGH       SUNNY     45  28  53 W10       30.26
MONTGOMERY     MOSUNNY   46  36  68 NW7       30.25R
POUGHKEEPSIE   MOSUNNY   42  33  70 CALM      30.25R
ALBANY         MOSUNNY   45  32  60 W17       30.26R
$$

NJZ001-105-106-008-010-013-015-019>022-104-191300-
NEW JERSEY

CITY           SKY/WX    TMP DP  RH WIND       PRES   REMARKS
NEWARK/LIBERTY PTSUNNY   45  37  73 VRB3      30.27R
TETERBORO      MOSUNNY   45  35  68 CALM      30.26R
CALDWELL       MOSUNNY   43  31  62 CALM      30.27R
MORRISTOWN     SUNNY     41  37  87 CALM      30.27R
SOMERVILLE     MOSUNNY   40  35  83 CALM      30.26R
LINDEN         FAIR      44  37  77 NW3       30.29R
SUSSEX         MOSUNNY   47  37  68 VRB5      30.26R
ANDOVER          N/A     45  38  76 VRB3      30.28R
TRENTON        MOSUNNY   43  36  76 NW12      30.27R
MILLVILLE      PTSUNNY   41  40  96 CALM      30.28R
ATLANTIC CITY  PTSUNNY   41  39  93 CALM      30.28R
WRIGHTSTOWN    MOSUNNY   44  39  84 W2        30.26R
TOMS RIVER     MOSUNNY   39  37  93 W3        30.28R
BELMAR         MOSUNNY   43  36  75 W7        30.26S
$$

PAZ047>061-062-071-191300-
EASTERN PENNSYLVANIA

CITY           SKY/WX    TMP DP  RH WIND       PRES   REMARKS
PHILADELPHIA   PTSUNNY   46  38  73 SW3       30.29R
ALLENTOWN      MOSUNNY   44  37  76 SW5       30.29R
SCRANTON       MOSUNNY   40  34  79 VRB3      30.29R
$$

CTZ002-004>006-009-010-012-RIZ004-006-007-MAZ004-011-015-191300-
SOUTHERN NEW ENGLAND
 IN CT

CITY           SKY/WX    TMP DP  RH WIND       PRES   REMARKS
BRADLEY INTL   PTSUNNY   41  34  76 S3        30.23R
HARTFORD       MOSUNNY   41  35  79 S5        30.24R
DANBURY        MOSUNNY   42  35  76 E3        30.25R
WTRBRY/OXFORD  MOSUNNY   43  32  65 NW3       30.25R
BRIDGEPORT     SUNNY     44  37  76 W6        30.26R
MERIDEN        MOSUNNY   40  36  86 S6        30.25R
NEW HAVEN      MOSUNNY   42  37  82 CALM      30.25R
CHESTER        FAIR      41  37  87 CALM      30.24R
GROTON         MOSUNNY   43  38  82 W6        30.24R
WILLIMANTIC    MOSUNNY   39  34  82 CALM      30.23S

 IN RI

CITY           SKY/WX    TMP DP  RH WIND       PRES   REMARKS
PROVIDENCE     MOSUNNY   44  34  67 W7        30.21S
BLOCK ISLAND   SUNNY     43  36  75 W16       30.23R
WESTERLY       MOSUNNY   42  37  82 VRB3      30.24R

 IN MA

CITY           SKY/WX    TMP DP  RH WIND       PRES   REMARKS
BOSTON         MOSUNNY   45  31  58 W10       30.18S
WORCESTER      SUNNY     41  30  65 W16       30.17S
WESTFIELD      SUNNY     39  33  79 CALM      30.22R
PROVINCETOWN   MOSUNNY   43  37  81 MISG      30.19S
NANTUCKET      MOSUNNY   44  39  82 W14       30.20S
$$

ANZ330-335-338-340-345-350-353-355-191300-
COASTAL MARINE OBSERVATIONS


STATION/POSITION TIME  SKY/WX   TEMP    WIND        PRES    VSBY  WAVE
                                AIR SEA DIR/SP/G                  HT/PER
                 (UTC)          (F)     (DEG/KT/KT) (MB)    (MI)  (FT/S)
NY HARB ENTRANCE 1200            42 43  130/ 10/ 14 1024.7
4S FIRE IS       1100               44                N/A           4/11
23SW MTP         1200            42 42  260/ 10/ 14 1024.0          5/10
HUDSON CANYON    1100            42 44  320/ 10/ 12 1024.0          6/11
EXECUTION ROCKS  1200            54 42  220/  2/  4   N/A
WESTERN LI SOUND 1200            42     270/  6/  6   N/A           1
CENTRAL LI SOUND 1200            41 42  250/  8/ 10   N/A           1
EASTERN LI SOUND NOT AVBL
ROBBINS REEF     1200            42     270/  6/  7   N/A
$$


>>>>>>>>>>>>>>>>>>>>>>>>>>>> KEY <<<<<<<<<<<<<<<<<<<<<<<<<<<
>                                                          <
>     SKY/WX - SKY CONDITION/PRESENT WEATHER               <
>     TMP    - TEMPERATURE IN FAHRENHEIT                   <
>     DP     - DEWPOINT IN FAHRENHEIT                      <
>     RH     - RELATIVE HUMIDITY IN PERCENT                <
>     WIND   - DIRECTION AND SPEED IN MPH                  <
>     PRES   - MEAN SEA LEVEL PRESSURE IN INCHES OF HG     <
>     WCI    - WIND CHILL INDEX                            <
>     VSB    - VISIBILITY IN MILES                         <
>     HX     - HEAT INDEX                                  <
>     TC     - TEMPERATURE IN CELSIUS                      <
>     VRB    - VARIABLE WIND DIRECTION                     <
>                                                          <
>>>>>>>>>>>>>>>>>>>>>>>>>>>> KEY <<<<<<<<<<<<<<<<<<<<<<<<<<<





USA.gov is the U.S. government's official web portal to all federal, state and local government web resources and services.